Regional Weather Roundup
Issued by NWS Albany, NY

Home | Current Version | Previous Version | Text Only | Print | Product List | Glossary On
Versions: 1 2 3 4 5 6 7 8 9 10 11 12 13 14 15 16 17 18 19 20 21 22 23 24 25 26 27 28 29 30 31 32 33 34 35 36 37 38 39 40 41 42 43 44 45 46 47 48 49 50
108
ASUS41 KALY 270910
RWRALY

NEW YORK STATE HOURLY WEATHER ROUNDUP
NATIONAL WEATHER SERVICE ALBANY NY
500 AM EDT MON MAR 27 2017

NOTE: "FAIR" INDICATES FEW OR NO CLOUDS BELOW 12,000 FEET WITH NO
SIGNIFICANT WEATHER AND/OR NO OBSTRUCTIONS TO VISIBILITY.

NYZ032-033-038>043-046>054-057>066-NYZ062>081-082-084-271000-
EAST


CITY           SKY/WX    TMP DP  RH WIND       PRES   REMARKS
ALBANY         LGT RAIN  36  32  85 S10       30.14F WCI  28
GLENS FALLS    MIX PCPN  32  30  92 E5        30.14F FOG     WCI  27
POUGHKEEPSIE   LGT RAIN  34  34 100 CALM      30.17F FOG
NEWBURGH       LGT RAIN  36  36 100 E7        30.18F FOG     WCI  30
MONTGOMERY     RAIN      35  34  96 N6        30.16F FOG     WCI  30
WHITE PLAINS   DRIZZLE   36  35  96 E8        30.16F FOG     WCI  30
ISLIP          FOG       40  40 100 E8        30.17F VSB 1   WCI  34
NEW YORK CITY  DRIZZLE   40  37  89 NE10      30.18F FOG     WCI  33
CENTRAL PARK   LGT RAIN  38  37  97 NE8       30.20F FOG     WCI  32
$$

NYZ005>009-017-018-044>046-055-056-271000-
CENTRAL


CITY           SKY/WX    TMP DP  RH WIND       PRES   REMARKS
FULTON         CLOUDY    38  36  92 SE8       29.98F WCI  32
SYRACUSE       CLOUDY    39  38  96 E8        29.99F WCI  33
ROME           CLOUDY    34  34 100 E5        30.07F WCI  30
ELMIRA         LGT RAIN  41  37  86 CALM      30.01F
BINGHAMTON     LGT RAIN  35  34  96 S10       30.01F WCI  27
MONTICELLO     CLOUDY    32  32 100 E8        30.11F WCI  25
$$

NYZ026>034-041>043-087-271000-
NORTH


CITY           SKY/WX    TMP DP  RH WIND       PRES   REMARKS
WATERTOWN      LGT RAIN  42  40  92 S6        29.97F
FORT DRUM      NOT AVBL
MASSENA        CLOUDY    34  32  92 NE8       30.02F WCI  27
SARANAC LAKE   CLOUDY    35  35 100 CALM      29.98F
PLATTSBURGH    LGT RAIN  35  31  85 SE17      30.07F WCI  25
$$

NYZ001>004-010>016-019>021-085-271000-
WEST


CITY           SKY/WX    TMP DP  RH WIND       PRES   REMARKS
NIAGARA FALLS  CLOUDY    50  43  77 S10       29.87F
BUFFALO        CLOUDY    50  44  80 S12       29.88F
DUNKIRK        CLOUDY    50  44  80 S17G24    29.88F
JAMESTOWN      CLOUDY    45  41  87 S8        29.91S
WELLSVILLE     LGT RAIN  42  39  89 S7        29.95F
ROCHESTER      LGT RAIN  48  41  76 S12       29.91F
PENN YAN       RAIN      43  37  79 S10       29.97F
$$

             KEY
       WCI = WIND CHILL INDEX
       VSB = VISIBILITY
       HX  = HEAT INDEX
$$




USA.gov is the U.S. government's official web portal to all federal, state and local government web resources and services.